Regional Weather Roundup
Issued by NWS

Home | Current Version | Previous Version | Graphics & Text | Print | Product List | Glossary On
Versions: 1 2 3 4 5 6 7 8 9 10 11 12 13 14 15 16 17 18 19 20 21 22 23 24 25 26 27 28 29 30 31 32 33 34 35 36 37 38 39 40 41 42 43 44 45 46 47 48 49 50
000
ASUS43 KOAX 231102
RWRNE

WEATHER ROUNDUP FOR NEBRASKA
NATIONAL WEATHER SERVICE OMAHA NE
600 AM CDT SAT JUL 23 2016

NOTES: SATELLITE DATA IS BEING USED TO AUGMENT CLOUD COVER ABOVE
       12000 FEET.
       "FAIR" INDICATES FEW OR NO CLOUDS BELOW 12,000 FEET WITH NO
       SIGNIFICANT WEATHER AND/OR OBSTRUCTIONS TO VISIBILITY.

  * THESE STATIONS DO NOT REPORT WEATHER SUCH AS RAIN...SNOW OR FOG.

NEZ001>004-019>022-054>056-231200-
NEBRASKA PANHANDLE

CITY           SKY/WX    TMP DP  RH WIND       PRES   REMARKS
SCOTTSBLUFF    CLOUDY    61  59  93 NW8       29.95S
ALLIANCE       CLOUDY    63  61  93 S3        29.93F
CHADRON        CLEAR     67  62  84 S5        29.87F
KIMBALL        CLOUDY    65  61  87 S7        30.03F
SIDNEY         CLOUDY    69  62  78 SW10      30.00F
$$

NEZ057>060-069>072-079>082-231200-
SOUTHWEST NEBRASKA

CITY           SKY/WX    TMP DP  RH WIND       PRES   REMARKS
NORTH PLATTE   CLOUDY    68  66  93 E7        29.87F
IMPERIAL       CLOUDY    71  64  78 CALM      29.92S
LEXINGTON      CLOUDY    71  67  86 S7        29.89S
MCCOOK         CLOUDY    73  65  75 SE10      29.88F
OGALLALA       CLOUDY    69  64  82 CALM      29.91F
$$

NEZ005>010-023>029-035>040-094-231200-
NORTH CENTRAL NEBRASKA

CITY           SKY/WX    TMP DP  RH WIND       PRES   REMARKS
VALENTINE      CLOUDY    70  64  81 VRB3      29.87F
AINSWORTH      CLOUDY    69  66  92 W6        29.88S
BROKEN BOW     CLOUDY    69  66  90 SW5       29.85F
O`NEILL        MOCLDY    71  68  89 CALM      29.82F
ORD            CLOUDY    72  66  81 W15       29.83F
THEDFORD       CLOUDY    69  64  85 E3        29.87F
$$

NEZ041-046>049-061>064-073>077-083>087-231200-
SOUTH CENTRAL NEBRASKA

CITY           SKY/WX    TMP DP  RH WIND       PRES   REMARKS
GRAND ISLAND   MOCLDY    72  68  87 SE5       29.85F
AURORA         MOCLDY    72  70  93 SE8       29.86F
HASTINGS       MOCLDY    72  67  84 S8        29.89F
HEBRON         CLOUDY    77  69  77 SW7       29.92F THUNDER
HOLDREGE       CLOUDY    75  64  69 S8        29.89F
KEARNEY *      CLOUDY    72  66  83 SW7       29.85F
YORK           CLOUDY    73  70  88 CALM      29.88F
$$

NEZ011>018-030>034-042>045-231200-
NORTHEAST NEBRASKA

CITY           SKY/WX    TMP DP  RH WIND       PRES   REMARKS
NORFOLK        CLOUDY    74  69  85 CALM      29.78F
ALBION         CLOUDY    71  68  90 SE8       29.83R
BLAIR          CLOUDY    80  73  77 S5        29.89S
FREMONT        CLOUDY    77  74  88 SE6       29.88F
TEKAMAH        LGT RAIN  79  74  84 SE9       29.86F
WAYNE          LGT RAIN  76  73  91 CALM      29.82F
$$

NEZ050>053-065>068-078-088>093-231200-
SOUTHEAST NEBRASKA

CITY           SKY/WX    TMP DP  RH WIND       PRES   REMARKS
LINCOLN        CLOUDY    80  71  74 S10       29.88F
OMAHA EPPLEY   HVY RAIN  82  72  71 S14       29.87R
BEATRICE       LGT RAIN  79  69  72 SW7       29.91R
FALLS CITY     CLOUDY    82  72  71 S8        29.91S
NEBRASKA CITY  MOCLDY    78  67  68 SW14      29.92R
PLATTSMOUTH    CLOUDY    80  68  66 S17G25    29.90R
$$

NEZ044-045-051>053-067-231200-
OMAHA AREA

CITY           SKY/WX    TMP DP  RH WIND       PRES   REMARKS
OMAHA EPPLEY   HVY RAIN  82  72  71 S14       29.87R
BLAIR          CLOUDY    80  73  77 S5        29.89S
FREMONT        CLOUDY    77  74  88 SE6       29.88F
MILLARD        CLOUDY    83  72  67 S7        29.87F
OFFUTT AFB     CLOUDY    82  70  65 S15       29.88R
PLATTSMOUTH    CLOUDY    80  68  66 S17G25    29.90R
WAHOO          CLOUDY    79  72  79 S6        29.87F
$$




USA.gov is the U.S. government's official web portal to all federal, state and local government web resources and services.